This is the latest recevied weather packets stored in our database for station/object KK7KHO. If no packets are shown the sender has not sent any weather packets the latest 10 day(s).
| Time | Temp. | Humidity | Pressure | Rain* | Wind** | Luminosity | Snow |
|---|---|---|---|---|---|---|---|
| 1777828078 | 18.89° C | 66% | 1013.9 hPa | 0 mm | - | 382 W/m² | - |
| 1777827774 | 19.44° C | 66% | 1013.8 hPa | 0 mm | - | 419 W/m² | - |
| 1777827471 | 19.44° C | 68% | 1013.7 hPa | 0 mm | - | 411 W/m² | - |
| 1777827169 | 18.89° C | 69% | 1013.9 hPa | 0 mm | - | 403 W/m² | - |
| 1777826864 | 19.44° C | 70% | 1013.6 hPa | 0 mm | - | 438 W/m² | - |
| 1777826563 | 19.44° C | 68% | 1013.9 hPa | 0 mm | - | 431 W/m² | - |
| 1777826258 | 19.44° C | 71% | 1013.9 hPa | 0 mm | - | 428 W/m² | - |
| 1777825956 | 18.89° C | 75% | 1014 hPa | 0 mm | - | 430 W/m² | - |
| 1777825653 | 18.33° C | 75% | 1013.9 hPa | 0 mm | - | 411 W/m² | - |
| 1777825351 | 18.33° C | 75% | 1013.8 hPa | 0 mm | - | 396 W/m² | - |
| 1777825047 | 18.33° C | 75% | 1014.1 hPa | 0 mm | - | 379 W/m² | - |
| 1777824743 | 17.78° C | 78% | 1014 hPa | 0 mm | - | 362 W/m² | - |
| 1777824441 | 17.78° C | 76% | 1013.9 hPa | 0 mm | - | 346 W/m² | - |
| 1777824136 | 18.33° C | 77% | 1014.1 hPa | 0 mm | - | 332 W/m² | - |
| 1777823833 | 16.67° C | 81% | 1014.1 hPa | 0 mm | - | 317 W/m² | - |
| 1777823531 | 16.67° C | 81% | 1014.1 hPa | 0 mm | - | 304 W/m² | - |
| 1777823228 | 15.56° C | 83% | 1013.9 hPa | 0 mm | - | 291 W/m² | - |
| 1777822925 | 16.11° C | 83% | 1014.1 hPa | 0 mm | - | 276 W/m² | - |
| 1777822623 | 15.56° C | 83% | 1014.1 hPa | 0 mm | - | 263 W/m² | - |
| 1777822320 | 15.56° C | 82% | 1013.9 hPa | 0 mm | - | 249 W/m² | - |
| 1777822018 | 15.56° C | 84% | 1014.1 hPa | 0 mm | - | 237 W/m² | - |
| 1777821715 | 15.56° C | 84% | 1014.1 hPa | 0 mm | - | 223 W/m² | - |
| 1777821413 | 15.56° C | 84% | 1014.3 hPa | 0 mm | - | 210 W/m² | - |
| 1777821109 | 15° C | 84% | 1014 hPa | 0 mm | - | 198 W/m² | - |
| 1777820807 | 15° C | 86% | 1014.3 hPa | 0 mm | - | 185 W/m² | - |
* Rain latest hour (hover to see other rain measurements)
** Current wind speed in m/s (hover to see current wind gust speed)